Home > Weather > Fort Collins > Past weeks

Flag for USA Past Weather in Fort Collins, Colorado, USA — Yesterday and Last 2 Weeks

Now
45 °F

Clear.


Feels Like: 40 °F
Forecast: 61 / 83 °F
Wind: 8 mph from North

Location: Fort Collins-Loveland Municipal Airport

Current Time: Jun 25, 2016 at 2:58:18 AM

Latest Report: Jun 25, 2016 at 2:35 AM


Visibility: 10 mi

Pressure: 30.01 "Hg (24.93 "Hg at 1522m altitude)

Humidity: N/A

Dew Point: N/A

Location of Fort CollinsLocation

Past Weather in Fort Collins — Graph

°F

Fort Collins Temperature Yesterday

Maximum temperature yesterday: 91 °F (at 1:15 PM)
Minimum temperature yesterday: 43 °F (at 10:55 PM)
Average temperature yesterday: 68 °F

High & Low Weather Summary for the Past Weeks

 TemperatureHumidityPressure
High95 °F (Jun 10, 3:15 PM)100% (Jun 10, 1:15 AM)30.23 "Hg (Jun 10, 1:15 AM)
Low34 °F (Jun 13, 5:15 AM)18% (Jun 10, 3:55 PM)29.85 "Hg (Jun 14, 4:15 PM)
Average59 °F62%30.04 "Hg
* Reported Jun 10 1:15 AM — Jun 25 1:35 AM, Fort Collins, Weather by CustomWeather, © 2016

Note: Actual official high and low records may vary slightly from our data, if they occured in-between our weather recording intervals... More about our weather records

Advertising

Fort Collins Weather History for the Previous 24 Hours

Scroll right to see more
 ConditionsComfort  
Time TempWeatherWind HumidityBarometerVisibility
1:35 AM
Sat, Jun 25
45 °FClear.3 mphN/A30.02 "Hg10 mi
1:15 AM43 °FClear.5 mphN/A30.01 "Hg10 mi
12:55 AM45 °FPassing clouds.No windN/A30.02 "Hg10 mi
12:35 AM43 °FPassing clouds.7 mphN/A30.03 "Hg10 mi
12:15 AM43 °FClear.8 mphN/A30.04 "Hg10 mi
11:55 PM
Fri, Jun 24
45 °FClear.5 mphN/A30.02 "Hg10 mi
11:35 PM48 °FClear.5 mph100%30.02 "Hg10 mi
11:15 PM48 °FClear.3 mph100%30.02 "Hg10 mi
10:55 PM43 °FClear.5 mphN/A30.02 "Hg10 mi
10:35 PM45 °FClear.3 mphN/A30.02 "Hg10 mi
10:15 PM45 °FClear.6 mphN/A30.02 "Hg10 mi
9:55 PM46 °FClear.6 mph100%30.01 "Hg10 mi
9:35 PM48 °FClear.7 mph100%30.01 "Hg10 mi
9:15 PM52 °FSunny.3 mph100%30.00 "Hg10 mi
8:55 PM54 °FSunny.No wind94%30.00 "Hg10 mi
8:35 PM52 °FSunny.7 mph100%29.99 "Hg10 mi
7:55 PM57 °FSunny.8 mph77%30.00 "Hg10 mi
7:35 PM59 °FSunny.13 mph72%30.00 "Hg10 mi
7:15 PM61 °FSunny.13 mph72%30.00 "Hg10 mi
6:55 PM61 °FSunny.13 mph77%30.01 "Hg10 mi
6:35 PM64 °FSunny.12 mph56%29.98 "Hg10 mi
6:15 PM66 °FSunny.15 mph56%29.97 "Hg10 mi
5:55 PM66 °FSunny.15 mph60%29.97 "Hg10 mi
5:35 PM64 °FPassing clouds.14 mph68%29.98 "Hg10 mi
5:15 PM54 °FPartly sunny.15 mph94%30.03 "Hg10 mi
4:55 PM61 °FThundershowers. Partly sunny.20 mph63%30.00 "Hg10 mi
4:35 PM64 °FThunderstorms. Scattered clouds.10 mph68%29.98 "Hg10 mi
4:15 PM70 °FSunny.7 mph57%29.96 "Hg10 mi
3:55 PM84 °FSunny.8 mph33%29.95 "Hg10 mi
3:35 PM84 °FSunny.13 mph35%29.96 "Hg10 mi
3:15 PM88 °FSunny.12 mph25%29.95 "Hg10 mi
2:55 PM88 °FSunny.9 mph29%29.96 "Hg10 mi
2:35 PM90 °FSunny.12 mph29%29.96 "Hg10 mi
2:15 PM88 °FSunny.13 mph31%29.97 "Hg10 mi
1:55 PM91 °FSunny.20 mph28%29.99 "Hg10 mi
1:35 PM91 °FThundershowers. Sunny.9 mph28%29.98 "Hg10 mi
1:15 PM91 °FSunny.13 mph28%29.97 "Hg8 mi
12:55 PM90 °FSunny.10 mph29%29.98 "Hg5 mi
12:35 PM90 °FSunny.10 mph27%30.00 "Hg10 mi
12:15 PM88 °FSunny.8 mph29%30.01 "Hg8 mi
11:55 AM88 °FSunny.5 mph33%30.01 "Hg4 mi
11:35 AM82 °FSunny.6 mph40%30.02 "Hg10 mi
11:15 AM82 °FSunny.7 mph37%30.03 "Hg10 mi
10:55 AM82 °FSunny.8 mph35%30.03 "Hg10 mi
10:35 AM61 °FSunny.No wind77%30.04 "Hg10 mi
10:15 AM59 °FSunny.No wind100%30.04 "Hg7 mi
Weather by CustomWeather, © 2016

See weather overviewHow to use our weather pages